Skip Page Navigation
NASA JPL Caltech
NASA Logo - Jet Propulsion Laboratory + View the NASA Portal
+ Center for Near-Earth Object Studies
JPL Home Earth Solar System Stars & Galaxies Technology
JPL Solar System Dynamics
BODIES ORBITS EPHEMERIDES TOOLS PHYSICAL DATA DISCOVERY FAQ SITE MAP
IMPORTANT: The SSD Announcement email list is now available. Major changes are coming in the near future, including possible hostname and/or URL changes. To be notified of such changes, subscribe to this email list.

Please visit this page for more details.


JPL Small-Body Database Browser
Search: [ help ]  
37988 (1998 HB153)
Classification: Main-belt Asteroid          SPK-ID: 2037988
Ephemeris | Orbit Diagram | Orbital Elements | Mission Design | Physical Parameters | Discovery Circumstances | Close-Approach Data ]

[ show orbit diagram ]
Orbital Elements at Epoch 2459000.5 (2020-May-31.0) TDB
Reference: JPL 31 (heliocentric ecliptic J2000)
 Element Value Uncertainty (1-sigma)   Units 
e .08141958487539314 4.1331e-08  
a 2.532805032328164 1.2651e-08 au
q 2.326585098025698 1.0367e-07 au
i 15.07072207086151 4.9784e-06 deg
node 140.8179260880842 1.5581e-05 deg
peri 84.49933798146824 3.3718e-05 deg
M 169.1468204522038 3.0734e-05 deg
tp 2458308.728914948785
(2018-Jul-09.22891495)
0.00012433 TDB
period 1472.316121300125
4.03
1.1031e-05
3.02e-08
d
yr
n .2445127067426952 1.832e-09 deg/d
Q 2.73902496663063 1.3681e-08 au
  Orbit Determination Parameters
   # obs. used (total)      975  
   data-arc span      7882 days (21.58 yr)  
   first obs. used      1998-04-23  
   last obs. used      2019-11-21  
   planetary ephem.      DE431  
   SB-pert. ephem.      SB431-N16  
   condition code      0  
   norm. resid. RMS      .53812  
   source      ORB  
   producer      Otto Matic  
   solution date      2020-Feb-23 04:41:58  

Additional Information
 Earth MOID = 1.37701 au 
 Jupiter MOID = 2.34785 au 
 T_jup = 3.397 
[ show covariance matrix ]

Ephemeris | Orbit Diagram | Orbital Elements | Mission Design | Physical Parameters | Discovery Circumstances | Close-Approach Data ]

Physical Parameter Table
Parameter Symbol Value Units Sigma Reference Notes
absolute magnitude H 14.8   n/a MPO436034  
diameter diameter 2.805 km 0.117 urn:nasa:pds:neowise_diameters_albedos::2.0[mainbelt] (http://adsabs.harvard.edu/abs/2011ApJ...741...68M)  
geometric albedo albedo 0.170   0.027 urn:nasa:pds:neowise_diameters_albedos::2.0[mainbelt] (http://adsabs.harvard.edu/abs/2011ApJ...741...68M)  

37988 (1998 HB153)          Discovered 1998-Apr-23 by JPL/GEODSS NEAT at Haleakala
Reference: 20020328/Numbers.arcLast Updated: 2004-04-19

[ show close-approach data ]
Alternate Designations
 1998 HB153 = 1999 RA243 = 2000 YS118 
Ephemeris | Orbit Diagram | Orbital Elements | Mission Design | Physical Parameters | Discovery Circumstances | Close-Approach Data ]
ABOUT SSD CREDITS/AWARDS PRIVACY/COPYRIGHT GLOSSARY LINKS
FirstGov 2020-Mar-29 16:15 UT
(server date/time)  
NASA Home Page
Site Manager:   Ryan S. Park
Webmaster  Alan B. Chamberlin